Regional Weather Roundup
Issued by NWS

Home | Current Version | Previous Version | Text Only | Print | Product List | Glossary Off
Versions: 1 2 3 4 5 6 7 8 9 10 11 12 13 14 15 16 17 18 19 20 21 22 23 24 25 26 27 28 29 30 31 32 33 34 35 36 37 38 39 40 41 42 43 44 45 46 47 48 49 50

000
ASUS43 KDTX 242001
RWRMI
MICHIGAN HOURLY REGIONAL WEATHER ROUNDUP
NATIONAL WEATHER SERVICE DETROIT/PONTIAC MI
300 PM EST TUE JAN 24 2017

NOTE: "FAIR" INDICATES FEW OR NO CLOUDS BELOW 12,000 FEET WITH NO
SIGNIFICANT WEATHER AND/OR OBSTRUCTION TO VISIBILITY.

MIZ047>049-052>055-059>063-066>070-074>076-081>083-242100-
SOUTHEAST LOWER MICHIGAN

CITY           SKY/WX    TMP DP  RH WIND       PRES   REMARKS
ADRIAN         CLOUDY    39  35  86 NW8       29.78R WCI  33
ALMA           PTSUNNY   40  35  82 NW9       29.76S WCI  34
ANN ARBOR      CLOUDY    39  36  89 W13       29.75R WCI  31
BAD AXE        CLOUDY    37  37 100 NW8       29.72F WCI  30
CARO           LGT RAIN  39  37  95 NW7       29.72S WCI  34
DETROIT CITY   CLOUDY    40  38  93 NW9       29.73R WCI  34
DETROIT        CLOUDY    42  37  82 NW12      29.75R
FLINT          CLOUDY    37  35  92 W14       29.75R WCI  28
GROSSE ILE     CLOUDY    41  37  87 NW10      29.73R
HILLSDALE      CLOUDY    36  34  93 NW14G20   29.76S WCI  27
HOWELL         CLOUDY    37  35  94 NW9       29.74R WCI  30

CITY           SKY/WX    TMP DP  RH WIND       PRES   REMARKS
JACKSON        CLOUDY    38  34  85 NW13      29.77R WCI  30
LAMBERTVILLE   CLOUDY    42  37  83 NW6       29.76R
LANSING        CLOUDY    37  33  85 NW10      29.77S WCI  30
LAPEER         CLOUDY    37  37 100 NW7       29.73S FOG     WCI  32
MASON          CLOUDY    37  35  94 NW8       29.77R WCI  30
MONROE         CLOUDY    41  39  90 NW7G18    29.75R
MT. CLEMENS    CLOUDY    40  40 100 NW10      29.70S WCI  34
PONTIAC        CLOUDY    37  35  92 NW12      29.71S WCI  29
PORT HOPE        N/A     36  35  96 NW9       29.71S WCI  29
PORT HURON     CLOUDY    37  37 100 NW8       29.71F FOG     WCI  31
TRI CITIES     CLOUDY    39  37  92 W7        29.74F WCI  34
MIDLAND        CLOUDY    40  35  81 NW7       29.73S
TROY           CLOUDY    40  37  88 W12       29.75R WCI  33
SAGINAW HB     CLOUDY    37  36  93 W9        29.73F WCI  31
$$
MIZ043>046-050>051-056>058-064>065-071>073-077>080-242100-
SOUTHWEST LOWER MICHIGAN

CITY           SKY/WX    TMP DP  RH WIND       PRES   REMARKS
BATTLE CREEK   CLOUDY    39  35  86 NW9       29.79S WCI  33
BENTON HARBOR  CLOUDY    38  34  85 W9        29.84S WCI  31
BIG RAPIDS     CLOUDY    37  35  92 NW5       29.76S WCI  34
COLDWATER      CLOUDY    39  36  89 W10       29.79S WCI  32
FREMONT        CLOUDY    40  37  90 W7        29.78S WCI  35
HOLLAND        CLOUDY    39  37  92 W7        29.82R WCI  34
GRAND RAPIDS   CLOUDY    40  34  79 W9        29.79S WCI  34
IONIA          CLOUDY    38  34  85 NW10      29.77S WCI  31
KALAMAZOO      CLOUDY    40  34  79 NW13      29.81R WCI  32
LUDINGTON      CLOUDY    38  37  93 NW9       29.78F WCI  32
MARSHALL       CLOUDY    39  35  86 W9        29.78R WCI  33
MOUNT PLEASANT PTSUNNY   41  36  82 W9        29.74S
MUSKEGON       CLOUDY    39  36  89 W10       29.81R WCI  32
SOUTH HAVEN    CLOUDY    37  37  97 W9        29.83S FOG     WCI  31
$$
MIZ016>042-242100-
NORTHERN LOWER MICHIGAN

CITY           SKY/WX    TMP DP  RH WIND       PRES   REMARKS
ALPENA         CLOUDY    37  34  89 CALM      29.74F
BEAVER ISLAND  CLOUDY    35  35 100 N3        29.76F FOG
CADILLAC       DRIZZLE   36  35  96 W6        29.73S WCI  31
CHARLEVOIX     FOG       35  35 100 N5        29.79S VSB 3/4 WCI  31
FRANKFORT      CLOUDY    38  36  92 NW3       29.77F
GAYLORD        CLOUDY    35  31  85 W5        29.72S FOG     WCI  31
GRAYLING       CLOUDY    36  35  96 NW9       29.73F FOG     WCI  29
HARBOR SPRINGS CLOUDY    35  34  96 CALM      29.75R
HOUGHTON LAKE  CLOUDY    36  34  92 NW7       29.73F WCI  30
MANISTEE       CLOUDY    38  36  92 NW6       29.78S WCI  33
OSCODA         MIX PCPN  38  37  93 CALM      29.73S
PELLSTON       CLOUDY    35  32  88 N5        29.75F WCI  31
ROGERS CITY    CLOUDY    34  33  97 N3        29.75F FOG
TRAVERSE CITY  DRIZZLE   38  36  92 N6        29.75F FOG     WCI  33
$$
MIZ007>008-015-242100-
EASTERN UPPER MICHIGAN

CITY           SKY/WX    TMP DP  RH WIND       PRES   REMARKS
KINROSS        LGT RAIN  35  34  96 N5        29.75F WCI  31
MACKINAC ISLAN CLOUDY    33  33 100 NE5       29.74F FOG     WCI  29
NEWBERRY       CLOUDY    34  33  96 N9        29.75F WCI  26
S. S. MARIE    CLOUDY    35  33  92 W5        29.75S FOG     WCI  31
MUNISING         N/A     35  34  96 NW13      29.77F WCI  26
$$
MIZ004>006-011>014-085-242100-
CENTRAL UPPER MICHIGAN

CITY           SKY/WX    TMP DP  RH WIND       PRES   REMARKS
MANISTIQUE     CLOUDY    36  35  97 N8        29.76S FOG     WCI  29
ESCANABA       CLOUDY    38  36  92 N3        29.79S
SAWYER-GWINN   CLOUDY    34  32  93 NE6       29.77S WCI  29
$$
MIZ001>003-009>011-084-242100-
WESTERN UPPER MICHIGAN

CITY           SKY/WX    TMP DP  RH WIND       PRES   REMARKS
IRON MOUNTAIN  CLOUDY    37  31  78 N7        29.76F WCI  32
HOUGHTON       CLOUDY    35  32  88 NW15      29.78S WCI  25
COPPER HARBOR    N/A     36  34  92 N14       29.79F WCI  27
IRONWOOD       CLOUDY    34  28  79 NW3       29.81F
$$

ABBREVIATIONS USED IN REMARKS
   TC - TEMPERATURE IN CELSIUS
  WCI - WIND CHILL INDEX
   HX - HEAT INDEX
  VSB - VISIBILITY





USA.gov is the U.S. government's official web portal to all federal, state and local government web resources and services.